Location: ?ejeti?ky
(50.4060°N, 14.9016°E)
Time: 07:31:47
(UTC+00:00)

N. Korean satellite - Pass Details

Date: 09 December 2021
Orbit: 446 x 491 km, 97.3° (Epoch: 18 January)

Event Time Altitude Azimuth Distance (km) Brightness Sun altitude
Rises 05:28:11 0° 359° (N) 2,466 9.9 -12.0°
Reaches altitude 10° 05:30:39 10° 340° (NNW) 1,586 8.8 -11.7°
Maximum altitude 05:33:02 18° 296° (WNW) 1,173 7.8 -11.3°
Drops below altitude 10° 05:35:24 10° 251° (WSW) 1,577 8.7 -11.0°
Sets 05:37:51 0° 232° (SW) 2,446 9.8 -10.6°
